[[{"header":{"parameterUnit":"m.s-1","parameterCategory":1,"la1":30.2991,"la2":30.254,"lo1":-89.0895,"lo2":-89.0444,"dy":0.0017,"dx":0.0017,"nx":28,"ny":28,"refTime":"2025-04-02T03:00:00:Z","depth":0,"parameterNumber":2,"parameterNumberName":"U-component_of_WINDS"},"data":[0,0,0,0,0,0,0,0,0,0,0,0,0,0,0,0,0,0,0,0,0,0,0,0,0,0,0,0,0,0,0,0,0,0,0,0,0,0,0,0,0,0,0,0,0,0,0,0,0,0,0,0,0,0,0,0,0,0,-4.9587,-4.9589,0,-4.9719,-4.972,-4.9722,-4.9749,-4.9748,-4.9747,-4.9746,-4.988,-4.9884,-4.9889,0,0,0,0,0,0,0,0,0,0,0,0,0,-4.9359,-4.9363,-4.9587,-4.9589,-4.959,-4.9719,-4.9721,-4.9722,-4.9749,-4.9748,-4.9747,-4.9745,-4.9879,-4.9884,-4.9889,0,0,0,0,0,0,0,0,0,0,0,0,0,-4.9471,-4.9365,-4.9587,-4.9619,-4.9623,-4.9718,-4.9721,-4.9723,-4.9749,-4.9748,-4.9746,-4.9745,-4.9877,-4.9883,-4.989,-4.9962,0,0,-4.9911,-4.9914,0,0,0,0,0,0,0,0,-4.9465,-4.948,-4.9613,-4.9617,-4.9622,-4.9716,-4.9689,-4.9803,-4.975,-4.9701,-4.9746,-4.9744,-4.9827,-4.9837,-4.9865,-4.9968,-4.9974,-4.9911,-4.9915,-4.9918,-4.992,0,0,0,0,0,0,0,-4.9457,-4.9474,-4.9639,-4.9615,-4.962,-4.9627,-4.9642,-4.9711,-4.9771,-4.9706,-4.9708,-4.9723,-4.9829,-4.9859,-4.9869,-4.9976,-4.9911,-4.9917,-4.9921,-4.9924,-5.0144,-5.0146,0,0,0,0,0,0,-4.9444,-4.9467,-4.9635,-4.9643,-4.9538,-4.9633,-4.9649,-4.9687,-4.977,-4.9781,-4.9724,-4.9724,-4.9848,-4.9861,-4.9874,-4.9962,-4.9918,-4.9925,-4.9928,-5.0142,-5.0145,-5.0147,0,0,0,0,0,0,-4.9439,-4.9458,-4.963,-4.9556,-4.9578,-4.9638,-4.9681,-4.9691,-4.9721,-4.9784,-4.9795,-4.9744,-4.9847,-4.9864,-4.994,-4.9967,-4.9928,-4.9934,-5.014,-5.0143,-5.0146,-5.014,0,0,0,0,0,0,-4.9432,-4.9456,-4.9484,-4.9557,-4.9582,-4.9693,-4.9683,-4.9694,-4.9732,-4.9733,-4.9805,-4.9816,-4.9847,-4.9929,-4.9946,-4.9976,-4.9939,-5.0138,-5.0142,-5.0145,-5.0138,-5.0142,-5.0146,0,0,0,0,0,-4.9424,-4.9477,-4.9485,-4.9505,-4.9618,-4.9695,-4.971,-4.9745,-4.9734,-4.9762,-4.9804,-4.9814,-4.9962,-4.9937,-4.9956,-4.9988,-5.0136,-5.0141,-5.0144,-5.0136,-5.0141,-5.0146,0,0,0,0,0,0,-4.9405,-4.9487,-4.9497,-4.9575,-4.9628,-4.9699,-4.9735,-4.9749,-4.9806,-4.9804,-4.9846,-4.9862,-4.9935,-4.997,-4.994,-5.0062,-5.0049,-5.0057,-5.0036,-5.0041,-5.0045,-5.0034,-4.9945,0,0,0,0,0,-4.941,-4.9466,-4.9535,-4.9597,-4.9623,-4.9675,-4.971,-4.9733,-4.9789,-4.9811,-4.9858,-4.9912,-4.9971,-5.0009,-5.0067,-5.0145,-5.016,-5.0176,-5.018,-5.0183,-5.0188,-5.0232,-5.0239,-5.016,-5.016,-5.016,0,0,-4.9421,-4.9473,-4.9505,-4.9595,-4.9638,-4.9695,-4.9693,-4.9753,-4.9796,-4.982,-4.9894,-4.9931,-4.9994,-5.0071,-5.0107,-5.0102,-5.0215,-5.0188,-5.019,-5.0194,-5.0237,-5.0244,-5.0251,-5.0163,-5.0162,-5.0162,0,0,-4.9469,-4.9514,-4.9571,-4.9615,-4.9681,-4.9716,-4.973,-4.98,-4.9825,-4.99,-4.992,-4.9971,-5.0072,-5.0116,-5.0152,-5.0219,-5.023,-5.0237,-5.0256,-5.0298,-5.0304,-5.031,-5.0333,-5.034,-5.0243,-5.0243,-5.0243,0,-4.9474,-4.9559,-4.9598,-4.9657,-4.9696,-4.9723,-4.978,-4.9821,-4.9903,-4.9929,-4.9923,-5.005,-5.0095,-5.0182,-5.0199,-5.0227,-5.0244,-5.0227,-5.0301,-5.0307,-5.0313,-5.0334,-5.0343,-5.0243,-5.0243,-5.0243,-5.0243,0,-4.9561,-4.9621,-4.9659,-4.9737,-4.9781,-4.9839,-4.9886,-4.9926,-4.9946,-4.9981,-5.0058,-5.0113,-5.0182,-5.0205,-5.0225,-5.0296,-5.0291,-5.0292,-5.0279,-5.032,-5.0341,-5.035,-5.0244,-5.0244,-5.0244,-5.0244,0,0,-4.9598,-4.9699,-4.9712,-4.9747,-4.9824,-4.9871,-4.9931,-4.9999,-5.0031,-5.0088,-5.0138,-5.0224,-5.0227,-5.0267,-5.0293,-5.033,-5.0378,-5.0327,-5.0329,-5.0333,-5.0458,-5.0454,-5.0464,-5.0388,-5.039,-5.0391,-5.0452,0,-4.9653,-4.976,-4.9798,-4.9886,-4.9941,-4.9968,-5.0021,-5.0073,-5.0109,-5.0161,-5.02,-5.026,-5.0259,-5.0284,-5.0322,-5.0364,-5.0404,-5.0361,-5.0434,-5.0436,-5.0414,-5.0475,-5.0471,-5.0526,-5.0461,-5.0463,-5.0464,0,-4.9731,-4.9788,-4.9882,-4.9952,-4.9977,-5.0023,-5.0088,-5.0139,-5.0199,-5.0223,-5.0269,-5.0293,-5.0356,-5.0342,-5.0431,-5.0401,-5.0434,-5.0459,-5.0462,-5.0468,-5.045,-5.048,-5.0545,-5.0552,-5.0477,-5.0476,-5.0475,0,-4.9745,-4.9847,-4.9916,-4.9946,-5.003,-5.0062,-5.0098,-5.0158,-5.0197,-5.0255,-5.028,-5.0345,-5.038,-5.043,-5.0471,-5.0457,-5.0555,-5.0545,-5.0576,-5.0574,-5.0592,-5.059,-5.066,-5.0618,-5.0618,-5.0618,-5.0617,0,-4.9802,-4.9857,-4.9924,-4.9965,-5.0029,-5.0073,-5.0135,-5.0173,-5.0226,-5.0276,-5.0305,-5.0352,-5.0404,-5.0458,-5.049,-5.0558,-5.0574,-5.0594,-5.0602,-5.059,-5.0587,-5.061,-5.0606,-5.062,-5.0619,-5.0619,-5.0619,0,-4.9827,-4.9874,-4.995,-5.0024,-5.0044,-5.0088,-5.0151,-5.0193,-5.0231,-5.0294,-5.0312,-5.0371,-5.0435,-5.0482,-5.0566,-5.0588,-5.066,-5.0668,-5.0639,-5.0642,-5.0669,-5.0665,-5.0754,-5.0768,-5.0718,-5.0719,-5.0719,0,-4.9858,-4.9901,-4.998,-5.0016,-5.0052,-5.011,-5.015,-5.0196,-5.0236,-5.031,-5.0343,-5.041,-5.0465,-5.0568,-5.0618,-5.0682,-5.0691,-5.0718,-5.0701,-5.0688,-5.0689,-5.0685,-5.0689,-5.0719,-5.072,-5.072,-5.072,0,-4.9908,-4.9929,-4.9985,-5.0051,-5.0098,-5.0151,-5.0205,-5.0233,-5.0288,-5.0333,-5.0399,-5.0442,-5.0528,-5.0594,-5.0664,-5.0702,-5.072,-5.0726,-5.0736,-5.0723,-5.0703,-5.0712,-5.0643,-5.0723,-5.0723,-5.0722,-5.0722,-5.0722,-4.9936,-4.9975,-5.0037,-5.0099,-5.0145,-5.0195,-5.0238,-5.0282,-5.0338,-5.0411,-5.0436,-5.0504,-5.0565,-5.0661,-5.07,-5.0755,-5.0753,-5.0768,-5.0772,-5.0774,-5.0772,-5.0697,-5.0768,-5.0768,-5.0768,-5.0768,-5.0768,0,-4.9985,-5.0026,-5.0083,-5.0158,-5.0207,-5.0222,-5.0283,-5.0323,-5.0383,-5.0438,-5.0493,-5.0569,-5.0634,-5.0691,-5.0758,-5.079,-5.0801,-5.0806,-5.0803,-5.0811,-5.0771,-5.0754,-5.0797,-5.0797,-5.0797,-5.0797,-5.0797,-5.0797,-5.0016,-5.0084,-5.0113,-5.0204,-5.0246,-5.0313,-5.0346,-5.0393,-5.0437,-5.0522,-5.0575,-5.0612,-5.0668,-5.074,-5.08,-5.0815,-5.0837,-5.0841,-5.0857,-5.0818,-5.0814,-5.0811,-5.0795,-5.0846,-5.0846,-5.0893,-5.0894,-5.0894]},{"header":{"parameterUnit":"m.s-1","parameterCategory":1,"la1":30.2991,"la2":30.254,"lo1":-89.0895,"lo2":-89.0444,"dy":0.0017,"dx":0.0017,"nx":28,"ny":28,"refTime":"2025-04-02T03:00:00:Z","depth":0,"parameterNumber":3,"parameterNumberName":"V-component_of_WINDS"},"data":[0,0,0,0,0,0,0,0,0,0,0,0,0,0,0,0,0,0,0,0,0,0,0,0,0,0,0,0,0,0,0,0,0,0,0,0,0,0,0,0,0,0,0,0,0,0,0,0,0,0,0,0,0,0,0,0,0,0,4.1971,4.1972,0,4.2047,4.2048,4.2049,4.2097,4.2097,4.2098,4.2098,4.2173,4.2175,4.2177,0,0,0,0,0,0,0,0,0,0,0,0,0,4.1866,4.1868,4.1971,4.1972,4.1973,4.2047,4.2048,4.2049,4.2097,4.2097,4.2098,4.2098,4.2173,4.2175,4.2177,0,0,0,0,0,0,0,0,0,0,0,0,0,4.1924,4.1868,4.1971,4.2006,4.201,4.2047,4.2048,4.2049,4.2097,4.2097,4.2098,4.2098,4.2172,4.2175,4.2177,4.2185,0,0,4.2185,4.2186,0,0,0,0,0,0,0,0,4.192,4.1927,4.2,4.2003,4.2008,4.2063,4.2039,4.2095,4.2097,4.2064,4.2098,4.2098,4.2136,4.2142,4.2155,4.2189,4.2192,4.2186,4.2187,4.2188,4.2189,0,0,0,0,0,0,0,4.1916,4.1924,4.2001,4.2001,4.2006,4.2017,4.2026,4.205,4.2097,4.2067,4.207,4.2079,4.2139,4.2152,4.2157,4.2193,4.2185,4.2188,4.2189,4.219,4.2239,4.2239,0,0,0,0,0,0,4.1907,4.1921,4.1999,4.2003,4.1964,4.2019,4.2029,4.2045,4.2096,4.2105,4.2078,4.2081,4.2148,4.2154,4.216,4.2174,4.2188,4.2191,4.2192,4.2239,4.2239,4.2238,0,0,0,0,0,0,4.1904,4.1913,4.1996,4.1963,4.1975,4.202,4.2038,4.2046,4.206,4.2105,4.2114,4.2084,4.2148,4.2156,4.2179,4.2177,4.2192,4.2194,4.2239,4.2239,4.2239,4.2201,0,0,0,0,0,0,4.1901,4.1912,4.1916,4.1963,4.1976,4.2013,4.2038,4.2047,4.2065,4.2069,4.2113,4.2121,4.2149,4.2175,4.2182,4.2181,4.2196,4.224,4.2239,4.2239,4.2203,4.22,4.2197,0,0,0,0,0,4.1897,4.1901,4.1916,4.1925,4.1981,4.2013,4.2021,4.2054,4.2064,4.2069,4.2098,4.2119,4.2176,4.2177,4.2185,4.2185,4.224,4.2239,4.2239,4.2204,4.22,4.2197,0,0,0,0,0,0,4.1851,4.1908,4.1924,4.1944,4.1973,4.2021,4.2027,4.2049,4.2075,4.2078,4.2118,4.2127,4.2146,4.2168,4.2168,4.2197,4.2211,4.2212,4.2182,4.2178,4.2175,4.217,4.2198,0,0,0,0,0,4.1843,4.1865,4.1913,4.1925,4.194,4.1981,4.1996,4.2019,4.2051,4.2064,4.2095,4.2125,4.215,4.2165,4.219,4.2206,4.2217,4.2211,4.2207,4.2205,4.2205,4.2217,4.2215,4.2236,4.2236,4.2236,0,0,4.1827,4.1861,4.1872,4.1917,4.1943,4.1964,4.1991,4.2012,4.2029,4.2067,4.2091,4.2115,4.2151,4.2171,4.2181,4.2189,4.2202,4.2204,4.2201,4.2204,4.2216,4.2214,4.2212,4.2236,4.2236,4.2236,0,0,4.1809,4.1836,4.185,4.1876,4.1916,4.1943,4.1947,4.1992,4.201,4.2035,4.2065,4.2085,4.2126,4.2151,4.2169,4.2163,4.2184,4.217,4.2154,4.2165,4.2164,4.2163,4.2162,4.2161,4.217,4.217,4.217,0,4.1783,4.1818,4.1854,4.1875,4.1895,4.1932,4.1947,4.197,4.2015,4.2028,4.2036,4.2091,4.2118,4.2145,4.2144,4.2157,4.2162,4.2165,4.2161,4.216,4.216,4.2159,4.2159,4.2168,4.2168,4.2169,4.2169,0,4.1785,4.1809,4.1815,4.186,4.188,4.1897,4.1937,4.1953,4.1975,4.2002,4.2028,4.2062,4.2096,4.2104,4.2124,4.2134,4.2139,4.2154,4.2169,4.2155,4.2155,4.2155,4.2165,4.2166,4.2167,4.2167,0,0,4.1739,4.1806,4.1807,4.1829,4.1876,4.1895,4.1914,4.1949,4.1962,4.1992,4.201,4.2046,4.2061,4.2081,4.2106,4.2115,4.211,4.213,4.2131,4.2126,4.2125,4.2114,4.2113,4.2125,4.2125,4.2125,4.2122,0,4.1729,4.1767,4.1802,4.1827,4.185,4.1886,4.1904,4.1934,4.196,4.1983,4.2012,4.2037,4.2054,4.2067,4.2078,4.2108,4.2111,4.2109,4.2142,4.2143,4.2133,4.2113,4.2101,4.2097,4.2123,4.2123,4.2123,0,4.1722,4.1752,4.178,4.1827,4.1838,4.1853,4.1889,4.191,4.1946,4.1964,4.1988,4.2015,4.2037,4.205,4.2083,4.2081,4.2096,4.2113,4.2114,4.2119,4.2132,4.2118,4.2097,4.2096,4.2123,4.2123,4.2123,0,4.1687,4.1735,4.1759,4.1776,4.1831,4.1841,4.1864,4.19,4.192,4.195,4.1963,4.1995,4.2013,4.2037,4.2072,4.2078,4.2101,4.2116,4.2117,4.2117,4.2121,4.212,4.2102,4.2129,4.2129,4.2129,4.2129,0,4.1673,4.1689,4.1744,4.1759,4.1778,4.1818,4.1836,4.1863,4.1895,4.1916,4.1948,4.1967,4.2011,4.2035,4.2061,4.2085,4.2093,4.2108,4.2115,4.2106,4.2104,4.2117,4.2119,4.2129,4.2129,4.2129,4.2129,0,4.1637,4.1675,4.1704,4.1754,4.1767,4.1779,4.1822,4.1838,4.1866,4.1892,4.19,4.1945,4.1975,4.2011,4.2052,4.2071,4.2092,4.2102,4.208,4.2085,4.2084,4.2084,4.2075,4.2076,4.2101,4.21,4.21,0,4.1626,4.164,4.1692,4.1709,4.1732,4.1757,4.1778,4.1818,4.1837,4.1881,4.1891,4.1924,4.1953,4.1999,4.2034,4.2066,4.2078,4.2073,4.2083,4.2074,4.208,4.2079,4.2081,4.207,4.2069,4.2069,4.2069,0,4.1602,4.1621,4.1649,4.1685,4.1708,4.1738,4.1769,4.178,4.1827,4.1847,4.1879,4.1901,4.1944,4.1977,4.2014,4.2037,4.2061,4.2065,4.2068,4.2058,4.2046,4.2054,4.2074,4.2065,4.2066,4.2066,4.2066,4.2066,4.158,4.1594,4.1634,4.1665,4.1693,4.1722,4.174,4.1771,4.1798,4.1838,4.1859,4.1891,4.1928,4.1981,4.2004,4.2029,4.2037,4.204,4.2041,4.2041,4.2039,4.2041,4.2035,4.2036,4.2036,4.2036,4.2036,0,4.1559,4.1587,4.1615,4.1658,4.1683,4.1704,4.174,4.1759,4.1787,4.182,4.1848,4.1885,4.1917,4.1956,4.1991,4.2003,4.2015,4.2011,4.2011,4.2017,4.2029,4.2024,4.2001,4.2001,4.2001,4.2001,4.2001,4.2001,4.1551,4.1578,4.1601,4.1642,4.167,4.1702,4.1721,4.1748,4.1775,4.1815,4.1843,4.1868,4.1904,4.1942,4.1972,4.1983,4.1995,4.1988,4.2002,4.2012,4.2015,4.2018,4.2014,4.199,4.199,4.1988,4.1987,4.1987]}]]